• Processing (Info)

  • MPEC 2016-E78 : 2016 EU28

    The following Minor Planet Electronic Circular may be linked-to from your own Web pages, but must not otherwise be redistributed electronically.

    A form allowing access to any MPEC is at the bottom of this page.


    Read MPEC 2016-E77 Read MPEC 2016-E79


    M.P.E.C. 2016-E78                                Issued 2016 Mar. 7, 23:39 UT
    
         The Minor Planet Electronic Circulars contain information on unusual
             minor planets and routine data on comets.  They are published
        on behalf of Division F of the International Astronomical Union by the
              Minor Planet Center, Smithsonian Astrophysical Observatory,
                              Cambridge, MA 02138, U.S.A.
    
                 Prepared using the Tamkin Foundation Computer Network
    
                                  MPC@CFA.HARVARD.EDU
                URL https://www.minorplanetcenter.net/    ISSN 1523-6714
    
                                       2016 EU28
    
    Observations:
         K16E28U* C2016 03 06.26453 08 32 29.280-01 47 55.52         20.9 wLEE078F51
         K16E28U  C2016 03 06.28965 08 32 09.019-01 47 35.73         21.1 wLEE078F51
         K16E28U  C2016 03 06.30223 08 31 58.770-01 47 25.38         20.6 wLEE078F51
         K16E28U KC2016 03 06.88885108 24 02.207-01 38 56.26         21.0 RqEE078J04
         K16E28U KC2016 03 06.89445908 23 56.838-01 38 50.68         21.3 RqEE078J04
         K16E28U KC2016 03 06.89970908 23 51.791-01 38 45.66         21.2 RqEE078J04
         K16E28U mC2016 03 07.16374 08 19 45.37 -01 34 18.4                oEE078691
         K16E28U mC2016 03 07.16622 08 19 42.96 -01 34 15.1                oEE078691
         K16E28U mC2016 03 07.16871 08 19 40.30 -01 34 12.3          20.9 VoEE078691
         K16E28U  C2016 03 07.23481 08 18 30.19 -01 33 00.0          19.4 VqEE078I52
         K16E28U  C2016 03 07.23608 08 18 28.83 -01 32 57.4          21.3 VqEE078I52
         K16E28U KC2016 03 07.93296 08 05 26.31 -01 18 46.4                qEE078J95
         K16E28U KC2016 03 07.94466 08 05 10.82 -01 18 28.5                qEE078J95
         K16E28U KC2016 03 07.95461 08 04 57.46 -01 18 14.4          20.6 RqEE078J95
    
    Observer details:
    691 Steward Observatory, Kitt Peak.  Observer J. V. Scotti.  0.9-m f/3
        reflector + CCD.
    F51 Pan-STARRS 1, Haleakala.  Observers B. Gibson, T. Goggia, N. Primak,
        A. Schultz, M. Willman.  Measurer P. Veres.  1.8-m Ritchey-Chretien + CCD.
    I52 Steward Observatory, Mt. Lemmon Station.  Observer J. A. Johnson.
        Measurers E. J. Christensen, D. C. Fuls, A. R. Gibbs, A. D. Grauer,
        J. A. Johnson, R. A. Kowalski, S. M. Larson, G. J. Leonard, R. G. Matheny,
        R. L. Seaman, F. C. Shelly.  1.0-m reflector + CCD.
    J04 ESA Optical Ground Station, Tenerife.  Observer D. Abreu.  Measurers
        M. Micheli, D. Koschny, A. Knoefel, E. Schwab, M. Busch.  1.0-m f/4.4
        reflector + CCD.
    J95 Great Shefford.  Observer P. Birtwhistle.  0.40-m f/6.0 Schmidt-Cassegrain
        + CCD.
    
    Orbital elements:
    2016 EU28                                                Earth MOID = 0.0062 AU
    Epoch 2016 Jan. 13.0 TT = JDT 2457400.5                 MPC
    M 323.27175              (2000.0)            P               Q
    n   0.37699908     Peri.   51.85031     -0.69909102     +0.71495235
    a   1.8977654      Node   173.76216     -0.68301535     -0.66327698
    e   0.5580455      Incl.    5.66130     -0.21156981     -0.22114880
    P   2.61           H   25.9           G   0.15           U   8
    Residuals in seconds of arc
    160306 F51  0.2-  0.1+    160306 J04  1.3+  0.4-    160307 I52  0.2-  0.6+
    160306 F51  0.2+  0.1-    160307 691 (2.8-  0.7-)   160307 J95  0.1+  0.1-
    160306 F51  0.1+  0.0     160307 691  0.1-  0.2-    160307 J95  0.9+  0.4+
    160306 J04  0.7+  0.2-    160307 691  0.9-  0.1-    160307 J95  0.6-  0.4-
    160306 J04  1.1+  0.1-    160307 I52  0.1-  0.5-
    
    Ephemeris:
    2016 EU28                a,e,i = 1.90, 0.56, 6                   q = 0.8387
    Date    TT    R. A. (2000) Decl.     Delta      r     Elong.  Phase     V
    2016 02 06    09 43 45.3 -01 21 34   0.2911  1.2652   161.4    14.4    24.5
    ...
    2016 02 21    09 30 47.5 -02 20 46   0.1583  1.1410   162.9    14.8    23.0
    ...
    2016 02 29    09 13 00.5 -02 23 51   0.09503 1.0774   154.9    23.0    22.0
    ...
    2016 03 06    08 35 33.1 -01 50 14   0.05029 1.0319   141.4    36.8    21.0
    2016 03 07    08 22 18.6 -01 35 22   0.04319 1.0246   137.4    41.0    20.7
    2016 03 08    08 04 04.6 -01 13 55   0.03629 1.0173   132.1    46.4    20.5
    ...
    2016 03 14    01 17 10.1 +04 48 22   0.02085 0.9756    26.2   153.3    26.5
    ...
    2016 03 22    22 40 51.2 +03 47 24   0.07603 0.9261    21.5   156.8    30.1
    ...
    2016 04 06    22 20 03.7 +03 18 56   0.1965  0.8597    40.1   131.5    27.9
    
    A. U. Tomatic                (C) Copyright 2016 MPC           M.P.E.C. 2016-E78
    

    Read MPEC 2016-E77 Read MPEC 2016-E79


    MPEC number:

    Enter an MPEC number in one of the following forms:

    • 1997-B01 (the full form)
    • J97B01 (the packed version of the full form)
    • B01 (the abbreviated form)